Wind_Speed
5 6 6 6 7 7 8 8 9 9 10 10 11 11 11 11 11 11 11 12 12 13 14 15 15 16 16 16 17 17 17 17 18 18 18 18 18 18 18 18 19 19 19
5 6 6 7 7 7 8 9 9 10 10 10 10 11 11 12 12 12 12 12 12 13 14 14 14 15 15 16 16 16 17 17 17 18 18 18 18 18 19 19 19 19 19
6 6 6 7 7 8 8 9 9 9 9 10 10 10 11 11 12 12 13 13 13 13 14 14 14 14 14 15 16 16 17 17 18 18 18 19 19 19 19 20 20 20 20
7 7 7 7 8 8 8 8 9 9 9 9 10 10 11 11 12 13 14 14 14 14 14 15 15 15 15 15 16 16 17 17 18 18 18 19 19 19 19 20 21 21 21
7 8 8 8 8 8 8 9 9 9 9 10 10 10 11 11 12 13 14 14 14 14 14 14 14 15 16 16 17 17 17 18 18 18 18 19 19 19 19 20 20 20 20
9 9 9 9 8 8 9 9 9 9 9 10 10 11 11 11 12 12 12 13 13 14 14 14 14 15 15 16 16 17 17 18 18 19 19 19 19 19 19 20 20 20 20
9 9 9 9 9 9 9 9 9 10 10 10 11 11 12 12 12 12 12 12 12 13 13 14 15 15 15 15 16 16 17 17 18 18 18 18 18 18 18 19 19 20 20
9 9 9 9 9 9 9 10 10 10 11 10 11 11 12 12 12 12 12 12 12 13 13 14 14 15 15 15 16 16 16 16 16 16 17 17 18 18 19 19 19 19 20
10 10 10 10 10 10 10 10 10 10 11 11 11 12 12 12 12 12 12 12 13 13 14 13 14 14 14 15 15 15 15 15 16 16 17 17 17 18 18 18 18 19 18
11 11 11 11 11 11 11 11 12 12 12 12 12 12 12 12 12 12 13 13 13 13 13 13 13 14 14 14 14 14 14 15 15 15 15 16 16 17 17 17 17 17 18
12 12 12 12 12 12 13 13 12 13 13 13 13 13 13 13 13 12 12 13 13 13 13 13 13 14 14 14 14 14 15 15 15 15 15 16 16 15 16 16 16 17 17
13 13 13 13 13 13 14 14 13 13 14 14 14 14 14 14 14 13 13 13 13 13 13 13 14 14 14 15 15 15 16 16 16 16 16 16 16 16 16 16 16 16 16
14 14 14 14 14 14 15 15 14 13 13 14 14 15 15 15 15 15 14 14 14 15 15 15 15 15 15 15 16 17 17 17 16 16 16 16 17 17 17 17 17 16 16
16 16 16 16 16 15 15 15 15 15 14 15 15 15 16 16 16 16 16 15 15 16 16 17 17 17 17 17 17 18 17 17 17 16 16 16 17 17 17 17 17 17 17
16 17 17 16 16 16 16 16 16 17 16 16 16 17 17 17 16 17 17 17 17 17 17 18 18 19 18 19 19 19 18 18 17 17 17 17 17 17 17 17 18 18 19
17 17 17 17 17 17 17 17 17 17 17 17 17 17 17 17 18 17 18 18 19 19 19 19 20 20 20 20 21 20 19 18 18 18 17 17 17 18 18 18 18 19 19
19 19 18 18 18 18 18 18 18 17 18 18 18 18 18 18 19 19 19 20 20 20 20 20 20 20 21 21 21 20 19 18 18 17 17 17 18 18 19 19 19 20 20
20 20 20 19 19 19 19 19 19 18 19 19 19 19 20 20 20 20 20 20 20 20 20 20 21 21 21 21 20 20 20 20 19 18 19 19 19 19 19 20 19 20 20
21 22 21 20 20 20 20 20 20 19 20 20 20 20 21 21 21 21 21 21 21 21 21 21 21 22 21 21 21 20 20 20 20 20 19 19 20 20 20 20 20 21 21
23 23 22 22 21 21 21 21 21 21 21 21 21 21 22 21 21 21 22 22 22 21 22 22 22 21 21 21 21 21 22 22 21 21 20 20 20 20 20 21 20 20 20
24 24 23 23 23 22 22 23 23 22 22 22 22 22 22 22 21 21 22 22 22 22 22 22 22 22 22 21 21 22 22 22 21 21 21 21 21 21 21 21 21 21 21
25 25 24 24 24 24 23 23 23 23 23 23 23 23 23 23 22 22 22 22 22 22 22 22 23 22 22 22 22 21 22 22 22 22 22 22 21 21 21 21 21 21 22
26 26 26 26 25 25 24 25 24 24 23 24 24 24 24 24 24 24 23 23 23 23 23 23 23 22 22 22 22 22 22 22 22 22 22 22 22 22 22 22 22 22 22
26 27 27 26 26 26 26 26 25 25 25 25 25 25 25 24 25 25 25 25 25 25 24 24 24 23 23 23 23 23 23 23 22 22 23 23 22 23 23 23 23 23 23
27 27 27 26 27 27 27 27 27 27 26 26 26 27 26 26 26 27 26 26 25 25 25 25 25 25 24 24 23 23 23 24 24 24 24 23 23 23 24 24 24 24 24
28 27 27 27 28 28 28 28 28 28 28 28 28 28 27 27 27 28 28 27 26 26 26 26 26 26 25 25 25 24 25 25 25 25 25 25 25 25 25 25 25 25 25
Wind_Direction
285 276 273 268 265 266 268 269 267 262 263 263 265 264 260 259 258 258 256 255 256 256 258 259 259 259 257 256 254 254 254 257 258 257 257 259 257 257 258 260 261 262 261
289 285 278 274 272 269 270 269 267 265 265 266 265 264 262 261 260 260 258 256 257 258 259 259 259 260 258 256 256 256 256 257 258 259 258 259 259 259 259 260 262 262 263
290 288 282 278 277 274 273 269 266 268 267 265 264 264 264 261 261 262 260 262 260 259 259 259 260 260 260 259 259 258 258 259 260 260 259 258 260 261 261 261 262 261 262
291 291 285 279 279 277 272 266 265 266 266 265 265 266 265 263 263 262 262 262 261 260 261 260 260 260 262 260 259 261 260 261 262 262 261 259 260 261 261 262 261 261 260
291 289 288 281 279 275 269 267 268 270 269 268 268 270 268 267 266 265 264 263 263 262 263 261 259 260 262 262 262 262 263 262 263 264 264 262 261 262 263 262 261 260 258
291 287 287 281 278 274 270 268 269 269 270 271 271 271 272 271 270 269 266 264 265 266 265 263 260 261 263 264 264 265 267 264 263 264 265 265 264 263 263 261 260 258 258
292 287 288 285 280 276 274 272 270 270 270 271 272 271 272 272 272 268 266 266 267 268 267 265 263 264 265 265 265 266 268 267 263 264 265 265 263 263 263 261 258 257 257
294 290 289 288 284 277 274 272 270 270 269 270 272 272 272 272 274 270 267 267 267 268 269 270 266 265 267 267 266 268 267 267 267 268 267 265 265 264 262 260 258 257 258
293 291 289 287 284 281 278 274 272 271 270 270 271 273 273 272 275 273 270 269 269 270 271 271 267 264 264 264 265 268 268 268 268 268 268 268 268 267 265 259 257 253 254
290 287 286 284 281 279 278 274 272 271 270 270 271 272 272 270 271 275 273 271 270 269 268 267 268 266 265 265 265 268 271 270 269 269 269 269 270 269 263 257 258 255 258
290 288 285 283 280 278 276 276 273 270 269 268 268 270 270 268 268 270 274 274 270 268 267 267 269 268 267 268 266 269 272 271 270 269 268 269 271 268 263 261 260 262 262
289 289 286 283 280 277 275 275 272 270 269 267 266 268 270 270 268 268 271 273 270 271 269 270 271 272 271 270 270 273 273 272 271 268 269 269 269 267 264 263 263 264 265
288 287 285 285 282 279 275 274 272 272 270 268 267 268 269 270 269 268 270 272 271 272 272 272 272 273 273 271 271 273 272 272 270 269 270 269 268 267 265 264 264 265 267
288 285 285 284 279 276 276 274 273 273 273 272 269 269 269 270 270 267 269 271 269 270 272 274 275 275 273 271 272 274 274 270 270 269 269 269 268 267 264 264 263 264 266
289 287 285 284 279 274 272 271 272 272 272 272 269 268 270 272 272 269 270 271 271 271 271 274 275 275 276 274 274 275 272 270 270 270 269 268 268 266 264 264 263 264 266
290 289 288 285 280 275 273 271 271 271 272 270 268 268 270 272 272 274 273 273 274 273 273 274 275 276 276 276 275 274 273 271 270 268 268 268 267 264 265 266 265 268 268
287 287 287 284 281 277 273 272 271 269 270 270 268 269 271 273 272 275 276 274 274 274 274 275 274 274 275 274 274 273 271 270 269 265 264 267 267 267 266 265 269 270 269
285 285 285 284 282 278 275 273 273 271 270 270 270 270 272 273 274 277 277 276 275 274 274 273 273 273 274 275 272 270 270 269 268 267 265 265 265 266 267 266 267 268 269
284 284 284 281 280 277 274 273 273 272 270 270 271 271 272 274 275 275 277 278 277 274 274 273 273 273 273 273 272 269 268 269 269 268 266 266 265 266 265 263 264 266 269
283 282 281 279 278 276 273 271 272 271 270 271 272 273 273 274 275 275 276 277 276 275 273 273 272 273 272 272 271 269 267 268 268 266 265 265 267 267 267 265 265 267 270
282 280 278 277 276 274 273 271 271 272 271 271 272 274 274 274 275 275 276 276 275 274 273 272 272 273 272 271 270 269 267 266 266 265 265 265 266 266 267 267 268 271 273
282 281 278 277 276 273 272 270 270 271 270 271 272 273 273 274 274 275 275 275 275 274 273 272 271 272 271 270 269 268 267 266 266 264 265 267 267 267 266 267 269 271 273
284 281 278 277 275 273 271 269 269 271 271 271 273 273 273 273 272 274 274 272 273 273 273 273 272 271 270 269 269 268 267 266 267 267 266 267 266 266 266 266 267 269 272
286 283 280 276 273 272 271 269 269 271 271 271 273 272 273 272 270 272 273 273 272 272 273 273 272 270 268 268 268 268 267 266 267 268 268 268 266 266 266 266 268 269 270
287 285 281 278 274 272 271 269 270 271 271 271 271 270 271 271 270 270 271 272 272 271 272 272 271 270 268 267 268 268 268 268 267 267 269 270 269 267 268 268 269 268 270
286 284 283 281 278 274 272 270 269 269 269 270 269 269 269 269 268 269 270 270 272 272 272 271 270 269 267 267 268 269 269 269 269 269 268 269 269 268 268 268 269 268 268
Height
5850 5849 5849 5848 5848 5848 5848 5848 5847 5847 5847 5847 5847 5847 5847 5847 5847 5846 5846 5846 5846 5846 5846 5846 5846 5846 5846 5846 5847 5847 5847 5848 5848 5848 5849 5849 5849 5849 5850 5850 5851 5851 5851
5849 5848 5848 5847 5847 5846 5846 5846 5845 5845 5845 5845 5845 5845 5844 5844 5844 5844 5844 5843 5843 5843 5843 5843 5842 5842 5843 5843 5843 5844 5844 5844 5844 5845 5845 5845 5845 5845 5846 5846 5846 5846 5847
5847 5847 5846 5846 5845 5844 5844 5843 5843 5843 5843 5842 5842 5842 5842 5842 5841 5841 5841 5841 5840 5840 5840 5839 5839 5839 5839 5839 5840 5840 5840 5840 5840 5841 5841 5841 5841 5841 5841 5841 5841 5842 5842
5845 5845 5844 5843 5843 5842 5842 5841 5841 5841 5841 5840 5840 5840 5839 5839 5839 5838 5838 5838 5837 5837 5837 5836 5836 5836 5836 5836 5836 5836 5836 5836 5836 5836 5836 5837 5837 5837 5837 5837 5837 5837 5837
5843 5843 5842 5841 5841 5840 5840 5840 5839 5839 5838 5838 5838 5837 5837 5837 5836 5835 5835 5835 5834 5834 5834 5833 5833 5833 5833 5833 5832 5832 5832 5832 5832 5832 5832 5832 5832 5832 5832 5832 5832 5832 5833
5841 5840 5840 5839 5838 5838 5837 5837 5837 5836 5836 5836 5835 5835 5834 5834 5833 5832 5832 5832 5831 5831 5830 5830 5830 5829 5829 5829 5829 5828 5828 5827 5827 5828 5828 5828 5827 5827 5827 5827 5827 5828 5828
5839 5838 5837 5836 5836 5835 5835 5834 5834 5833 5833 5833 5833 5832 5831 5831 5830 5830 5829 5828 5828 5827 5827 5826 5826 5826 5825 5825 5825 5824 5824 5823 5823 5823 5823 5823 5822 5822 5822 5822 5822 5823 5823
5836 5835 5835 5834 5833 5832 5832 5831 5831 5830 5830 5830 5830 5829 5829 5828 5827 5826 5826 5825 5825 5824 5824 5823 5822 5822 5822 5821 5821 5821 5820 5820 5819 5819 5818 5818 5818 5817 5817 5816 5817 5817 5818
5833 5832 5831 5831 5830 5829 5829 5828 5828 5827 5827 5827 5827 5827 5826 5825 5824 5824 5823 5822 5822 5821 5820 5820 5819 5818 5818 5817 5817 5817 5816 5816 5815 5815 5814 5813 5813 5811 5810 5811 5811 5812 5813
5830 5829 5828 5827 5827 5826 5826 5825 5825 5824 5824 5824 5823 5823 5823 5822 5822 5821 5820 5819 5818 5818 5817 5816 5816 5815 5815 5814 5813 5813 5813 5812 5812 5811 5810 5809 5808 5806 5805 5806 5807 5808 5808
5827 5826 5825 5824 5823 5823 5822 5821 5821 5821 5820 5820 5820 5819 5819 5818 5818 5817 5817 5816 5815 5814 5814 5813 5812 5812 5811 5810 5810 5809 5809 5808 5808 5807 5806 5805 5804 5803 5803 5803 5804 5804 5804
5824 5822 5821 5820 5820 5819 5818 5817 5817 5817 5816 5816 5816 5815 5815 5815 5814 5814 5813 5812 5811 5811 5810 5810 5809 5808 5807 5807 5806 5806 5805 5804 5804 5803 5803 5802 5801 5800 5800 5800 5800 5801 5801
5820 5819 5817 5816 5815 5815 5814 5813 5813 5812 5812 5812 5812 5811 5811 5811 5810 5810 5809 5809 5808 5807 5806 5806 5805 5804 5804 5803 5802 5802 5801 5800 5799 5799 5798 5798 5798 5797 5797 5797 5797 5797 5797
5816 5815 5813 5812 5811 5810 5809 5809 5809 5808 5808 5808 5808 5807 5807 5806 5806 5806 5805 5805 5804 5804 5803 5802 5801 5800 5799 5799 5798 5797 5796 5795 5795 5795 5794 5794 5793 5793 5793 5793 5793 5794 5793
5811 5810 5809 5807 5806 5805 5805 5804 5804 5804 5804 5803 5803 5803 5803 5802 5801 5801 5801 5800 5800 5799 5799 5798 5796 5795 5795 5794 5793 5792 5791 5791 5790 5790 5789 5789 5789 5789 5789 5789 5789 5789 5789
5807 5805 5804 5802 5801 5800 5800 5800 5799 5799 5799 5798 5798 5798 5798 5797 5797 5796 5796 5795 5794 5794 5793 5792 5791 5790 5789 5788 5788 5787 5786 5785 5785 5784 5784 5784 5784 5784 5784 5784 5785 5785 5785
5801 5800 5799 5797 5796 5795 5795 5795 5794 5794 5794 5794 5793 5793 5793 5792 5792 5791 5790 5790 5789 5788 5787 5787 5785 5785 5784 5783 5782 5781 5781 5781 5780 5780 5780 5780 5779 5779 5779 5780 5780 5780 5780
5796 5795 5793 5792 5791 5790 5789 5789 5789 5789 5789 5788 5788 5788 5787 5787 5786 5785 5784 5783 5783 5782 5781 5780 5780 5779 5778 5777 5777 5776 5776 5776 5775 5775 5775 5775 5774 5774 5774 5774 5775 5775 5774
5790 5789 5787 5786 5785 5785 5784 5784 5784 5783 5783 5783 5782 5782 5782 5781 5780 5779 5778 5777 5776 5775 5775 5774 5773 5773 5772 5771 5771 5771 5771 5770 5770 5770 5769 5769 5769 5769 5769 5769 5769 5769 5769
5784 5783 5781 5780 5779 5779 5778 5778 5778 5777 5777 5777 5776 5776 5775 5775 5774 5773 5772 5771 5770 5769 5768 5767 5767 5766 5766 5765 5765 5765 5765 5765 5764 5764 5764 5764 5764 5764 5764 5764 5764 5764 5764
5777 5776 5775 5774 5773 5773 5772 5772 5771 5771 5771 5770 5770 5769 5769 5768 5767 5766 5765 5764 5763 5762 5762 5761 5761 5760 5759 5759 5759 5759 5759 5758 5759 5759 5758 5758 5758 5758 5758 5758 5758 5758 5757
5770 5769 5768 5767 5766 5766 5765 5765 5765 5764 5764 5764 5763 5762 5762 5761 5760 5759 5759 5758 5757 5756 5755 5755 5754 5753 5753 5753 5753 5752 5752 5752 5753 5753 5752 5752 5752 5752 5752 5752 5752 5752 5751
5763 5762 5760 5759 5759 5758 5758 5758 5757 5757 5757 5756 5756 5755 5754 5754 5753 5752 5752 5751 5750 5749 5749 5748 5748 5747 5747 5746 5746 5746 5746 5746 5746 5746 5746 5746 5746 5746 5746 5746 5746 5746 5745
5755 5753 5752 5751 5751 5751 5750 5750 5750 5749 5749 5749 5748 5748 5747 5746 5746 5745 5744 5744 5743 5743 5742 5741 5741 5740 5740 5740 5739 5739 5739 5739 5740 5739 5739 5740 5739 5739 5739 5739 5739 5739 5738
5747 5745 5744 5743 5742 5742 5742 5742 5741 5741 5741 5741 5740 5740 5739 5739 5738 5738 5737 5736 5736 5735 5734 5734 5733 5733 5733 5732 5732 5732 5732 5732 5732 5733 5732 5732 5732 5732 5732 5732 5731 5731 5730
5739 5737 5736 5735 5734 5734 5733 5733 5732 5732 5732 5732 5732 5731 5731 5730 5730 5729 5729 5728 5728 5727 5726 5726 5725 5725 5725 5725 5725 5725 5725 5725 5724 5725 5724 5724 5724 5724 5724 5724 5723 5723 5722